owner,sensor,date,latitude,longitude,sea_surface_height_above_sea_level,qcFlag 
COMPS,ioos:station:USF.COMPS:ANM:1,2010-05-01T00:00:00Z,27.5400,-82.7400,-0.48,1111122 
COMPS,ioos:station:USF.COMPS:ANM:1,2010-05-01T00:06:00Z,27.5400,-82.7400,-0.487,1111122 
COMPS,ioos:station:USF.COMPS:ANM:1,2010-05-01T00:12:00Z,27.5400,-82.7400,-0.491,1111122 
COMPS,ioos:station:USF.COMPS:ANM:1,2010-05-01T00:18:00Z,27.5400,-82.7400,-0.485,1111122 
COMPS,ioos:station:USF.COMPS:ANM:1,2010-05-01T00:24:00Z,27.5400,-82.7400,-0.488,1111122 
COMPS,ioos:station:USF.COMPS:ANM:1,2010-05-01T00:30:00Z,27.5400,-82.7400,-0.493,1111122 
COMPS,ioos:station:USF.COMPS:ANM:1,2010-05-01T00:36:00Z,27.5400,-82.7400,-0.493,1111122 
COMPS,ioos:station:USF.COMPS:ANM:1,2010-05-01T00:42:00Z,27.5400,-82.7400,-0.495,1111122 
COMPS,ioos:station:USF.COMPS:ANM:1,2010-05-01T00:48:00Z,27.5400,-82.7400,-0.497,1111122 
COMPS,ioos:station:USF.COMPS:ANM:1,2010-05-01T00:54:00Z,27.5400,-82.7400,-0.499,1111122 
COMPS,ioos:station:USF.COMPS:ANM:1,2010-05-01T01:00:00Z,27.5400,-82.7400,-0.493,1111122 
COMPS,ioos:station:USF.COMPS:ANM:1,2010-05-01T01:06:00Z,27.5400,-82.7400,-0.498,1111122 
COMPS,ioos:station:USF.COMPS:ANM:1,2010-05-01T01:12:00Z,27.5400,-82.7400,-0.496,1111122 
COMPS,ioos:station:USF.COMPS:ANM:1,2010-05-01T01:18:00Z,27.5400,-82.7400,-0.491,1111122 
COMPS,ioos:station:USF.COMPS:ANM:1,2010-05-01T01:24:00Z,27.5400,-82.7400,-0.481,1111122 
COMPS,ioos:station:USF.COMPS:ANM:1,2010-05-01T01:30:00Z,27.5400,-82.7400,-0.471,1111122 
COMPS,ioos:station:USF.COMPS:ANM:1,2010-05-01T01:36:00Z,27.5400,-82.7400,-0.47,1111122 
COMPS,ioos:station:USF.COMPS:ANM:1,2010-05-01T01:42:00Z,27.5400,-82.7400,-0.468,1111122 
COMPS,ioos:station:USF.COMPS:ANM:1,2010-05-01T01:48:00Z,27.5400,-82.7400,-0.462,1111122 
COMPS,ioos:station:USF.COMPS:ANM:1,2010-05-01T01:54:00Z,27.5400,-82.7400,-0.456,1111122 
COMPS,ioos:station:USF.COMPS:ANM:1,2010-05-01T02:00:00Z,27.5400,-82.7400,-0.443,1111122 
COMPS,ioos:station:USF.COMPS:ANM:1,2010-05-01T02:06:00Z,27.5400,-82.7400,-0.438,1111122 
COMPS,ioos:station:USF.COMPS:ANM:1,2010-05-01T02:12:00Z,27.5400,-82.7400,-0.426,1111122 
COMPS,ioos:station:USF.COMPS:ANM:1,2010-05-01T02:18:00Z,27.5400,-82.7400,-0.411,1111122 
COMPS,ioos:station:USF.COMPS:ANM:1,2010-05-01T02:24:00Z,27.5400,-82.7400,-0.404,1111122 
COMPS,ioos:station:USF.COMPS:ANM:1,2010-05-01T02:30:00Z,27.5400,-82.7400,-0.388,1111122 
COMPS,ioos:station:USF.COMPS:ANM:1,2010-05-01T02:36:00Z,27.5400,-82.7400,-0.379,1111122 
COMPS,ioos:station:USF.COMPS:ANM:1,2010-05-01T02:42:00Z,27.5400,-82.7400,-0.375,1111122 
COMPS,ioos:station:USF.COMPS:ANM:1,2010-05-01T02:48:00Z,27.5400,-82.7400,-0.366,1111122 
COMPS,ioos:station:USF.COMPS:ANM:1,2010-05-01T02:54:00Z,27.5400,-82.7400,-0.356,1111122 
COMPS,ioos:station:USF.COMPS:ANM:1,2010-05-01T03:00:00Z,27.5400,-82.7400,-0.345,1111122 
COMPS,ioos:station:USF.COMPS:ANM:1,2010-05-01T03:06:00Z,27.5400,-82.7400,-0.327,1111122 
COMPS,ioos:station:USF.COMPS:ANM:1,2010-05-01T03:12:00Z,27.5400,-82.7400,-0.314,1111122 
COMPS,ioos:station:USF.COMPS:ANM:1,2010-05-01T03:18:00Z,27.5400,-82.7400,-0.31,1111122 
COMPS,ioos:station:USF.COMPS:ANM:1,2010-05-01T03:24:00Z,27.5400,-82.7400,-0.306,1111122 
COMPS,ioos:station:USF.COMPS:ANM:1,2010-05-01T03:30:00Z,27.5400,-82.7400,-0.294,1111122 
COMPS,ioos:station:USF.COMPS:ANM:1,2010-05-01T03:36:00Z,27.5400,-82.7400,-0.283,1111122 
COMPS,ioos:station:USF.COMPS:ANM:1,2010-05-01T03:42:00Z,27.5400,-82.7400,-0.268,1111122 
COMPS,ioos:station:USF.COMPS:ANM:1,2010-05-01T03:48:00Z,27.5400,-82.7400,-0.253,1111122 
COMPS,ioos:station:USF.COMPS:ANM:1,2010-05-01T03:54:00Z,27.5400,-82.7400,-0.245,1111122 
COMPS,ioos:station:USF.COMPS:ANM:1,2010-05-01T04:00:00Z,27.5400,-82.7400,-0.234,1111122 
COMPS,ioos:station:USF.COMPS:ANM:1,2010-05-01T04:06:00Z,27.5400,-82.7400,-0.221,1111122 
COMPS,ioos:station:USF.COMPS:ANM:1,2010-05-01T04:12:00Z,27.5400,-82.7400,-0.208,1111122 
COMPS,ioos:station:USF.COMPS:ANM:1,2010-05-01T04:18:00Z,27.5400,-82.7400,-0.198,1111122 
COMPS,ioos:station:USF.COMPS:ANM:1,2010-05-01T04:24:00Z,27.5400,-82.7400,-0.191,1111122 
COMPS,ioos:station:USF.COMPS:ANM:1,2010-05-01T04:30:00Z,27.5400,-82.7400,-0.18,1111122 
COMPS,ioos:station:USF.COMPS:ANM:1,2010-05-01T04:36:00Z,27.5400,-82.7400,-0.176,1111122 
COMPS,ioos:station:USF.COMPS:ANM:1,2010-05-01T04:42:00Z,27.5400,-82.7400,-0.166,1111122 
COMPS,ioos:station:USF.COMPS:ANM:1,2010-05-01T04:48:00Z,27.5400,-82.7400,-0.157,1111122 
COMPS,ioos:station:USF.COMPS:ANM:1,2010-05-01T04:54:00Z,27.5400,-82.7400,-0.152,1111122 
COMPS,ioos:station:USF.COMPS:ANM:1,2010-05-01T05:00:00Z,27.5400,-82.7400,-0.14,1111122 
COMPS,ioos:station:USF.COMPS:ANM:1,2010-05-01T05:06:00Z,27.5400,-82.7400,-0.133,1111122 
COMPS,ioos:station:USF.COMPS:ANM:1,2010-05-01T05:12:00Z,27.5400,-82.7400,-0.129,1111122 
COMPS,ioos:station:USF.COMPS:ANM:1,2010-05-01T05:18:00Z,27.5400,-82.7400,-0.117,1111122 
COMPS,ioos:station:USF.COMPS:ANM:1,2010-05-01T05:24:00Z,27.5400,-82.7400,-0.109,1111122 
COMPS,ioos:station:USF.COMPS:ANM:1,2010-05-01T05:30:00Z,27.5400,-82.7400,-0.104,1111122 
COMPS,ioos:station:USF.COMPS:ANM:1,2010-05-01T05:36:00Z,27.5400,-82.7400,-0.096,1111122 
COMPS,ioos:station:USF.COMPS:ANM:1,2010-05-01T05:42:00Z,27.5400,-82.7400,-0.096,1111122 
COMPS,ioos:station:USF.COMPS:ANM:1,2010-05-01T05:48:00Z,27.5400,-82.7400,-0.089,1111122 
COMPS,ioos:station:USF.COMPS:ANM:1,2010-05-01T05:54:00Z,27.5400,-82.7400,-0.076,1111122 
COMPS,ioos:station:USF.COMPS:ANM:1,2010-05-01T06:00:00Z,27.5400,-82.7400,-0.074,1111122 
COMPS,ioos:station:USF.COMPS:ANM:1,2010-05-01T06:06:00Z,27.5400,-82.7400,-0.068,1111122 
COMPS,ioos:station:USF.COMPS:ANM:1,2010-05-01T06:12:00Z,27.5400,-82.7400,-0.06,1111122 
COMPS,ioos:station:USF.COMPS:ANM:1,2010-05-01T06:18:00Z,27.5400,-82.7400,-0.046,1111122 
COMPS,ioos:station:USF.COMPS:ANM:1,2010-05-01T06:24:00Z,27.5400,-82.7400,-0.044,1111122 
COMPS,ioos:station:USF.COMPS:ANM:1,2010-05-01T06:30:00Z,27.5400,-82.7400,-0.033,1111122 
COMPS,ioos:station:USF.COMPS:ANM:1,2010-05-01T06:36:00Z,27.5400,-82.7400,-0.034,1111122 
COMPS,ioos:station:USF.COMPS:ANM:1,2010-05-01T06:42:00Z,27.5400,-82.7400,-0.042,1111122 
COMPS,ioos:station:USF.COMPS:ANM:1,2010-05-01T06:48:00Z,27.5400,-82.7400,-0.036,1111122 
COMPS,ioos:station:USF.COMPS:ANM:1,2010-05-01T06:54:00Z,27.5400,-82.7400,-0.027,1111122 
COMPS,ioos:station:USF.COMPS:ANM:1,2010-05-01T07:00:00Z,27.5400,-82.7400,-0.025,1111122 
COMPS,ioos:station:USF.COMPS:ANM:1,2010-05-01T07:06:00Z,27.5400,-82.7400,-0.023,1111122 
COMPS,ioos:station:USF.COMPS:ANM:1,2010-05-01T07:12:00Z,27.5400,-82.7400,-0.021,1111122 
COMPS,ioos:station:USF.COMPS:ANM:1,2010-05-01T07:18:00Z,27.5400,-82.7400,-0.018,1111122 
COMPS,ioos:station:USF.COMPS:ANM:1,2010-05-01T07:24:00Z,27.5400,-82.7400,-0.02,1111122 
COMPS,ioos:station:USF.COMPS:ANM:1,2010-05-01T07:30:00Z,27.5400,-82.7400,-0.03,1111122 
COMPS,ioos:station:USF.COMPS:ANM:1,2010-05-01T07:36:00Z,27.5400,-82.7400,-0.029,1111122 
COMPS,ioos:station:USF.COMPS:ANM:1,2010-05-01T07:42:00Z,27.5400,-82.7400,-0.021,1111122 
COMPS,ioos:station:USF.COMPS:ANM:1,2010-05-01T07:48:00Z,27.5400,-82.7400,-0.027,1111122 
COMPS,ioos:station:USF.COMPS:ANM:1,2010-05-01T07:54:00Z,27.5400,-82.7400,-0.025,1111122 
COMPS,ioos:station:USF.COMPS:ANM:1,2010-05-01T08:00:00Z,27.5400,-82.7400,-0.02,1111122 
COMPS,ioos:station:USF.COMPS:ANM:1,2010-05-01T08:06:00Z,27.5400,-82.7400,-0.024,1111122 
COMPS,ioos:station:USF.COMPS:ANM:1,2010-05-01T08:12:00Z,27.5400,-82.7400,-0.031,1111122 
COMPS,ioos:station:USF.COMPS:ANM:1,2010-05-01T08:18:00Z,27.5400,-82.7400,-0.041,1111122 
COMPS,ioos:station:USF.COMPS:ANM:1,2010-05-01T08:24:00Z,27.5400,-82.7400,-0.047,1111122 
COMPS,ioos:station:USF.COMPS:ANM:1,2010-05-01T08:30:00Z,27.5400,-82.7400,-0.046,1111122 
COMPS,ioos:station:USF.COMPS:ANM:1,2010-05-01T08:36:00Z,27.5400,-82.7400,-0.04,1111122 
COMPS,ioos:station:USF.COMPS:ANM:1,2010-05-01T08:42:00Z,27.5400,-82.7400,-0.042,1111122 
COMPS,ioos:station:USF.COMPS:ANM:1,2010-05-01T08:48:00Z,27.5400,-82.7400,-0.046,1111122 
COMPS,ioos:station:USF.COMPS:ANM:1,2010-05-01T08:54:00Z,27.5400,-82.7400,-0.042,1111122 
COMPS,ioos:station:USF.COMPS:ANM:1,2010-05-01T09:00:00Z,27.5400,-82.7400,-0.049,1111122 
COMPS,ioos:station:USF.COMPS:ANM:1,2010-05-01T09:06:00Z,27.5400,-82.7400,-0.064,1111122 
COMPS,ioos:station:USF.COMPS:ANM:1,2010-05-01T09:12:00Z,27.5400,-82.7400,-0.062,1111122 
COMPS,ioos:station:USF.COMPS:ANM:1,2010-05-01T09:18:00Z,27.5400,-82.7400,-0.068,1111122 
COMPS,ioos:station:USF.COMPS:ANM:1,2010-05-01T09:24:00Z,27.5400,-82.7400,-0.065,1111122 
COMPS,ioos:station:USF.COMPS:ANM:1,2010-05-01T09:30:00Z,27.5400,-82.7400,-0.065,1111122 
COMPS,ioos:station:USF.COMPS:ANM:1,2010-05-01T09:36:00Z,27.5400,-82.7400,-0.069,1111122 
COMPS,ioos:station:USF.COMPS:ANM:1,2010-05-01T09:42:00Z,27.5400,-82.7400,-0.07,1111122 
COMPS,ioos:station:USF.COMPS:ANM:1,2010-05-01T09:48:00Z,27.5400,-82.7400,-0.069,1111122 
COMPS,ioos:station:USF.COMPS:ANM:1,2010-05-01T09:54:00Z,27.5400,-82.7400,-0.074,1111122 
COMPS,ioos:station:USF.COMPS:ANM:1,2010-05-01T10:00:00Z,27.5400,-82.7400,-0.079,1111122 
COMPS,ioos:station:USF.COMPS:ANM:1,2010-05-01T10:06:00Z,27.5400,-82.7400,-0.084,1111122 
COMPS,ioos:station:USF.COMPS:ANM:1,2010-05-01T10:12:00Z,27.5400,-82.7400,-0.081,1111122 
COMPS,ioos:station:USF.COMPS:ANM:1,2010-05-01T10:18:00Z,27.5400,-82.7400,-0.082,1111122 
COMPS,ioos:station:USF.COMPS:ANM:1,2010-05-01T10:24:00Z,27.5400,-82.7400,-0.084,1111122 
COMPS,ioos:station:USF.COMPS:ANM:1,2010-05-01T10:30:00Z,27.5400,-82.7400,-0.081,1111122 
COMPS,ioos:station:USF.COMPS:ANM:1,2010-05-01T10:36:00Z,27.5400,-82.7400,-0.081,1111122 
COMPS,ioos:station:USF.COMPS:ANM:1,2010-05-01T10:42:00Z,27.5400,-82.7400,-0.085,1111122 
COMPS,ioos:station:USF.COMPS:ANM:1,2010-05-01T10:48:00Z,27.5400,-82.7400,-0.082,1111122 
COMPS,ioos:station:USF.COMPS:ANM:1,2010-05-01T10:54:00Z,27.5400,-82.7400,-0.086,1111122 
COMPS,ioos:station:USF.COMPS:ANM:1,2010-05-01T11:00:00Z,27.5400,-82.7400,-0.085,1111122 
COMPS,ioos:station:USF.COMPS:ANM:1,2010-05-01T11:06:00Z,27.5400,-82.7400,-0.076,1111122 
COMPS,ioos:station:USF.COMPS:ANM:1,2010-05-01T11:12:00Z,27.5400,-82.7400,-0.071,1111122 
COMPS,ioos:station:USF.COMPS:ANM:1,2010-05-01T11:18:00Z,27.5400,-82.7400,-0.068,1111122 
COMPS,ioos:station:USF.COMPS:ANM:1,2010-05-01T11:24:00Z,27.5400,-82.7400,-0.067,1111122 
COMPS,ioos:station:USF.COMPS:ANM:1,2010-05-01T11:30:00Z,27.5400,-82.7400,-0.065,1111122 
COMPS,ioos:station:USF.COMPS:ANM:1,2010-05-01T11:36:00Z,27.5400,-82.7400,-0.055,1111122 
COMPS,ioos:station:USF.COMPS:ANM:1,2010-05-01T11:42:00Z,27.5400,-82.7400,-0.047,1111122 
COMPS,ioos:station:USF.COMPS:ANM:1,2010-05-01T11:48:00Z,27.5400,-82.7400,-0.04,1111122 
COMPS,ioos:station:USF.COMPS:ANM:1,2010-05-01T11:54:00Z,27.5400,-82.7400,-0.037,1111122 
COMPS,ioos:station:USF.COMPS:ANM:1,2010-05-01T12:00:00Z,27.5400,-82.7400,-0.033,1111122 
COMPS,ioos:station:USF.COMPS:ANM:1,2010-05-01T12:06:00Z,27.5400,-82.7400,-0.03,1111122 
COMPS,ioos:station:USF.COMPS:ANM:1,2010-05-01T12:12:00Z,27.5400,-82.7400,-0.013,1111122 
COMPS,ioos:station:USF.COMPS:ANM:1,2010-05-01T12:18:00Z,27.5400,-82.7400,-0.001,1111122 
COMPS,ioos:station:USF.COMPS:ANM:1,2010-05-01T12:24:00Z,27.5400,-82.7400,0.007,1111122 
COMPS,ioos:station:USF.COMPS:ANM:1,2010-05-01T12:30:00Z,27.5400,-82.7400,0.015,1111122 
COMPS,ioos:station:USF.COMPS:ANM:1,2010-05-01T12:36:00Z,27.5400,-82.7400,0.014,1111122 
COMPS,ioos:station:USF.COMPS:ANM:1,2010-05-01T12:42:00Z,27.5400,-82.7400,0.02,1111122 
COMPS,ioos:station:USF.COMPS:ANM:1,2010-05-01T12:48:00Z,27.5400,-82.7400,0.031,1111122 
COMPS,ioos:station:USF.COMPS:ANM:1,2010-05-01T12:54:00Z,27.5400,-82.7400,0.038,1111122 
COMPS,ioos:station:USF.COMPS:ANM:1,2010-05-01T13:00:00Z,27.5400,-82.7400,0.044,1111122 
COMPS,ioos:station:USF.COMPS:ANM:1,2010-05-01T13:06:00Z,27.5400,-82.7400,0.053,1111122 
COMPS,ioos:station:USF.COMPS:ANM:1,2010-05-01T13:12:00Z,27.5400,-82.7400,0.063,1111122 
COMPS,ioos:station:USF.COMPS:ANM:1,2010-05-01T13:18:00Z,27.5400,-82.7400,0.069,1111122 
COMPS,ioos:station:USF.COMPS:ANM:1,2010-05-01T13:24:00Z,27.5400,-82.7400,0.079,1111122 
COMPS,ioos:station:USF.COMPS:ANM:1,2010-05-01T13:30:00Z,27.5400,-82.7400,0.087,1111122 
COMPS,ioos:station:USF.COMPS:ANM:1,2010-05-01T13:36:00Z,27.5400,-82.7400,0.09,1111122 
COMPS,ioos:station:USF.COMPS:ANM:1,2010-05-01T13:42:00Z,27.5400,-82.7400,0.098,1111122 
COMPS,ioos:station:USF.COMPS:ANM:1,2010-05-01T13:48:00Z,27.5400,-82.7400,0.106,1111122 
COMPS,ioos:station:USF.COMPS:ANM:1,2010-05-01T13:54:00Z,27.5400,-82.7400,0.111,1111122 
COMPS,ioos:station:USF.COMPS:ANM:1,2010-05-01T14:00:00Z,27.5400,-82.7400,0.117,1111122 
COMPS,ioos:station:USF.COMPS:ANM:1,2010-05-01T14:06:00Z,27.5400,-82.7400,0.128,1111122 
COMPS,ioos:station:USF.COMPS:ANM:1,2010-05-01T14:12:00Z,27.5400,-82.7400,0.14,1111122 
COMPS,ioos:station:USF.COMPS:ANM:1,2010-05-01T14:18:00Z,27.5400,-82.7400,0.142,1111122 
COMPS,ioos:station:USF.COMPS:ANM:1,2010-05-01T14:24:00Z,27.5400,-82.7400,0.151,1111122 
COMPS,ioos:station:USF.COMPS:ANM:1,2010-05-01T14:30:00Z,27.5400,-82.7400,0.158,1111122 
COMPS,ioos:station:USF.COMPS:ANM:1,2010-05-01T14:36:00Z,27.5400,-82.7400,0.165,1111122 
COMPS,ioos:station:USF.COMPS:ANM:1,2010-05-01T14:42:00Z,27.5400,-82.7400,0.174,1111122 
COMPS,ioos:station:USF.COMPS:ANM:1,2010-05-01T14:48:00Z,27.5400,-82.7400,0.193,1111122 
COMPS,ioos:station:USF.COMPS:ANM:1,2010-05-01T14:54:00Z,27.5400,-82.7400,0.198,1111122 
COMPS,ioos:station:USF.COMPS:ANM:1,2010-05-01T15:00:00Z,27.5400,-82.7400,0.206,1111122 
COMPS,ioos:station:USF.COMPS:ANM:1,2010-05-01T15:06:00Z,27.5400,-82.7400,0.216,1111122 
COMPS,ioos:station:USF.COMPS:ANM:1,2010-05-01T15:12:00Z,27.5400,-82.7400,0.226,1111122 
COMPS,ioos:station:USF.COMPS:ANM:1,2010-05-01T15:18:00Z,27.5400,-82.7400,0.233,1111122 
COMPS,ioos:station:USF.COMPS:ANM:1,2010-05-01T15:24:00Z,27.5400,-82.7400,0.241,1111122 
COMPS,ioos:station:USF.COMPS:ANM:1,2010-05-01T15:30:00Z,27.5400,-82.7400,0.251,1111122 
COMPS,ioos:station:USF.COMPS:ANM:1,2010-05-01T15:36:00Z,27.5400,-82.7400,0.252,1111122 
COMPS,ioos:station:USF.COMPS:ANM:1,2010-05-01T15:42:00Z,27.5400,-82.7400,0.259,1111122 
COMPS,ioos:station:USF.COMPS:ANM:1,2010-05-01T15:48:00Z,27.5400,-82.7400,0.267,1111122 
COMPS,ioos:station:USF.COMPS:ANM:1,2010-05-01T15:54:00Z,27.5400,-82.7400,0.272,1111122 
COMPS,ioos:station:USF.COMPS:ANM:1,2010-05-01T16:00:00Z,27.5400,-82.7400,0.281,1111122 
COMPS,ioos:station:USF.COMPS:ANM:1,2010-05-01T16:06:00Z,27.5400,-82.7400,0.281,1111122 
COMPS,ioos:station:USF.COMPS:ANM:1,2010-05-01T16:12:00Z,27.5400,-82.7400,0.288,1111122 
COMPS,ioos:station:USF.COMPS:ANM:1,2010-05-01T16:18:00Z,27.5400,-82.7400,0.298,1111122 
COMPS,ioos:station:USF.COMPS:ANM:1,2010-05-01T16:24:00Z,27.5400,-82.7400,0.297,1111122 
COMPS,ioos:station:USF.COMPS:ANM:1,2010-05-01T16:30:00Z,27.5400,-82.7400,0.297,1111122 
COMPS,ioos:station:USF.COMPS:ANM:1,2010-05-01T16:36:00Z,27.5400,-82.7400,0.306,1111122 
COMPS,ioos:station:USF.COMPS:ANM:1,2010-05-01T16:42:00Z,27.5400,-82.7400,0.312,1111122 
COMPS,ioos:station:USF.COMPS:ANM:1,2010-05-01T16:48:00Z,27.5400,-82.7400,0.314,1111122 
COMPS,ioos:station:USF.COMPS:ANM:1,2010-05-01T16:54:00Z,27.5400,-82.7400,0.32,1111122 
COMPS,ioos:station:USF.COMPS:ANM:1,2010-05-01T17:00:00Z,27.5400,-82.7400,0.318,1111122 
COMPS,ioos:station:USF.COMPS:ANM:1,2010-05-01T17:06:00Z,27.5400,-82.7400,0.318,1111122 
COMPS,ioos:station:USF.COMPS:ANM:1,2010-05-01T17:12:00Z,27.5400,-82.7400,0.316,1111122 
COMPS,ioos:station:USF.COMPS:ANM:1,2010-05-01T17:18:00Z,27.5400,-82.7400,0.321,1111122 
COMPS,ioos:station:USF.COMPS:ANM:1,2010-05-01T17:24:00Z,27.5400,-82.7400,0.321,1111122 
COMPS,ioos:station:USF.COMPS:ANM:1,2010-05-01T17:30:00Z,27.5400,-82.7400,0.325,1111122 
COMPS,ioos:station:USF.COMPS:ANM:1,2010-05-01T17:36:00Z,27.5400,-82.7400,0.321,1111122 
COMPS,ioos:station:USF.COMPS:ANM:1,2010-05-01T17:42:00Z,27.5400,-82.7400,0.318,1111122 
COMPS,ioos:station:USF.COMPS:ANM:1,2010-05-01T17:48:00Z,27.5400,-82.7400,0.322,1111122 
COMPS,ioos:station:USF.COMPS:ANM:1,2010-05-01T17:54:00Z,27.5400,-82.7400,0.318,1111122 
COMPS,ioos:station:USF.COMPS:ANM:1,2010-05-01T18:00:00Z,27.5400,-82.7400,0.318,1111122 
COMPS,ioos:station:USF.COMPS:ANM:1,2010-05-01T18:06:00Z,27.5400,-82.7400,0.321,1111122 
COMPS,ioos:station:USF.COMPS:ANM:1,2010-05-01T18:12:00Z,27.5400,-82.7400,0.322,1111122 
COMPS,ioos:station:USF.COMPS:ANM:1,2010-05-01T18:18:00Z,27.5400,-82.7400,0.319,1111122 
COMPS,ioos:station:USF.COMPS:ANM:1,2010-05-01T18:24:00Z,27.5400,-82.7400,0.308,1111122 
COMPS,ioos:station:USF.COMPS:ANM:1,2010-05-01T18:30:00Z,27.5400,-82.7400,0.3,1111122 
COMPS,ioos:station:USF.COMPS:ANM:1,2010-05-01T18:36:00Z,27.5400,-82.7400,0.296,1111122 
COMPS,ioos:station:USF.COMPS:ANM:1,2010-05-01T18:42:00Z,27.5400,-82.7400,0.29,1111122 
COMPS,ioos:station:USF.COMPS:ANM:1,2010-05-01T18:48:00Z,27.5400,-82.7400,0.287,1111122 
COMPS,ioos:station:USF.COMPS:ANM:1,2010-05-01T18:54:00Z,27.5400,-82.7400,0.283,1111122 
COMPS,ioos:station:USF.COMPS:ANM:1,2010-05-01T19:00:00Z,27.5400,-82.7400,0.274,1111122 
COMPS,ioos:station:USF.COMPS:ANM:1,2010-05-01T19:06:00Z,27.5400,-82.7400,0.263,1111122 
COMPS,ioos:station:USF.COMPS:ANM:1,2010-05-01T19:12:00Z,27.5400,-82.7400,0.257,1111122 
COMPS,ioos:station:USF.COMPS:ANM:1,2010-05-01T19:18:00Z,27.5400,-82.7400,0.245,1111122 
COMPS,ioos:station:USF.COMPS:ANM:1,2010-05-01T19:24:00Z,27.5400,-82.7400,0.234,1111122 
COMPS,ioos:station:USF.COMPS:ANM:1,2010-05-01T19:30:00Z,27.5400,-82.7400,0.226,1111122 
COMPS,ioos:station:USF.COMPS:ANM:1,2010-05-01T19:36:00Z,27.5400,-82.7400,0.216,1111122 
COMPS,ioos:station:USF.COMPS:ANM:1,2010-05-01T19:42:00Z,27.5400,-82.7400,0.206,1111122 
COMPS,ioos:station:USF.COMPS:ANM:1,2010-05-01T19:48:00Z,27.5400,-82.7400,0.193,1111122 
COMPS,ioos:station:USF.COMPS:ANM:1,2010-05-01T19:54:00Z,27.5400,-82.7400,0.183,1111122 
COMPS,ioos:station:USF.COMPS:ANM:1,2010-05-01T20:00:00Z,27.5400,-82.7400,0.172,1111122 
COMPS,ioos:station:USF.COMPS:ANM:1,2010-05-01T20:06:00Z,27.5400,-82.7400,0.153,1111122 
COMPS,ioos:station:USF.COMPS:ANM:1,2010-05-01T20:12:00Z,27.5400,-82.7400,0.138,1111122 
COMPS,ioos:station:USF.COMPS:ANM:1,2010-05-01T20:18:00Z,27.5400,-82.7400,0.136,1111122 
COMPS,ioos:station:USF.COMPS:ANM:1,2010-05-01T20:24:00Z,27.5400,-82.7400,0.121,1111122 
COMPS,ioos:station:USF.COMPS:ANM:1,2010-05-01T20:30:00Z,27.5400,-82.7400,0.104,1111122 
COMPS,ioos:station:USF.COMPS:ANM:1,2010-05-01T20:36:00Z,27.5400,-82.7400,0.083,1111122 
COMPS,ioos:station:USF.COMPS:ANM:1,2010-05-01T20:42:00Z,27.5400,-82.7400,0.065,1111122 
COMPS,ioos:station:USF.COMPS:ANM:1,2010-05-01T20:48:00Z,27.5400,-82.7400,0.046,1111122 
COMPS,ioos:station:USF.COMPS:ANM:1,2010-05-01T20:54:00Z,27.5400,-82.7400,0.031,1111122 
COMPS,ioos:station:USF.COMPS:ANM:1,2010-05-01T21:00:00Z,27.5400,-82.7400,0.019,1111122 
COMPS,ioos:station:USF.COMPS:ANM:1,2010-05-01T21:06:00Z,27.5400,-82.7400,0.003,1111122 
COMPS,ioos:station:USF.COMPS:ANM:1,2010-05-01T21:12:00Z,27.5400,-82.7400,-0.02,1111122 
COMPS,ioos:station:USF.COMPS:ANM:1,2010-05-01T21:18:00Z,27.5400,-82.7400,-0.041,1111122 
COMPS,ioos:station:USF.COMPS:ANM:1,2010-05-01T21:24:00Z,27.5400,-82.7400,-0.055,1111122 
COMPS,ioos:station:USF.COMPS:ANM:1,2010-05-01T21:30:00Z,27.5400,-82.7400,-0.071,1111122 
COMPS,ioos:station:USF.COMPS:ANM:1,2010-05-01T21:36:00Z,27.5400,-82.7400,-0.085,1111122 
COMPS,ioos:station:USF.COMPS:ANM:1,2010-05-01T21:42:00Z,27.5400,-82.7400,-0.102,1111122 
COMPS,ioos:station:USF.COMPS:ANM:1,2010-05-01T21:48:00Z,27.5400,-82.7400,-0.115,1111122 
COMPS,ioos:station:USF.COMPS:ANM:1,2010-05-01T21:54:00Z,27.5400,-82.7400,-0.134,1111122 
COMPS,ioos:station:USF.COMPS:ANM:1,2010-05-01T22:00:00Z,27.5400,-82.7400,-0.147,1111122 
COMPS,ioos:station:USF.COMPS:ANM:1,2010-05-01T22:06:00Z,27.5400,-82.7400,-0.265,1111122 
COMPS,ioos:station:USF.COMPS:ANM:1,2010-05-01T22:12:00Z,27.5400,-82.7400,-0.359,1111122 
COMPS,ioos:station:USF.COMPS:ANM:1,2010-05-01T22:18:00Z,27.5400,-82.7400,-0.191,1111122 
COMPS,ioos:station:USF.COMPS:ANM:1,2010-05-01T22:24:00Z,27.5400,-82.7400,-0.201,1111122 
COMPS,ioos:station:USF.COMPS:ANM:1,2010-05-01T22:30:00Z,27.5400,-82.7400,-0.216,1111122 
COMPS,ioos:station:USF.COMPS:ANM:1,2010-05-01T22:36:00Z,27.5400,-82.7400,-0.231,1111122 
COMPS,ioos:station:USF.COMPS:ANM:1,2010-05-01T22:42:00Z,27.5400,-82.7400,-0.249,1111122 
COMPS,ioos:station:USF.COMPS:ANM:1,2010-05-01T22:48:00Z,27.5400,-82.7400,-0.261,1111122 
COMPS,ioos:station:USF.COMPS:ANM:1,2010-05-01T22:54:00Z,27.5400,-82.7400,-0.274,1111122 
COMPS,ioos:station:USF.COMPS:ANM:1,2010-05-01T23:00:00Z,27.5400,-82.7400,-0.289,1111122 
COMPS,ioos:station:USF.COMPS:ANM:1,2010-05-01T23:06:00Z,27.5400,-82.7400,-0.301,1111122 
COMPS,ioos:station:USF.COMPS:ANM:1,2010-05-01T23:12:00Z,27.5400,-82.7400,-0.313,1111122 
COMPS,ioos:station:USF.COMPS:ANM:1,2010-05-01T23:18:00Z,27.5400,-82.7400,-0.323,1111122 
COMPS,ioos:station:USF.COMPS:ANM:1,2010-05-01T23:24:00Z,27.5400,-82.7400,-0.336,1111122 
COMPS,ioos:station:USF.COMPS:ANM:1,2010-05-01T23:30:00Z,27.5400,-82.7400,-0.344,1111122 
COMPS,ioos:station:USF.COMPS:ANM:1,2010-05-01T23:36:00Z,27.5400,-82.7400,-0.352,1111122 
COMPS,ioos:station:USF.COMPS:ANM:1,2010-05-01T23:42:00Z,27.5400,-82.7400,-0.368,1111122 
COMPS,ioos:station:USF.COMPS:ANM:1,2010-05-01T23:48:00Z,27.5400,-82.7400,-0.377,1111122 
COMPS,ioos:station:USF.COMPS:ANM:1,2010-05-01T23:54:00Z,27.5400,-82.7400,-0.384,1111122 
COMPS,ioos:station:USF.COMPS:ANM:1,2010-05-02T00:00:00Z,27.5400,-82.7400,-0.389,1111122 
COMPS,ioos:station:USF.COMPS:ANM:1,2010-05-02T00:06:00Z,27.5400,-82.7400,-0.399,1111122 
COMPS,ioos:station:USF.COMPS:ANM:1,2010-05-02T00:12:00Z,27.5400,-82.7400,-0.408,1111122 
COMPS,ioos:station:USF.COMPS:ANM:1,2010-05-02T00:18:00Z,27.5400,-82.7400,-0.418,1111122 
COMPS,ioos:station:USF.COMPS:ANM:1,2010-05-02T00:24:00Z,27.5400,-82.7400,-0.425,1111122 
COMPS,ioos:station:USF.COMPS:ANM:1,2010-05-02T00:30:00Z,27.5400,-82.7400,-0.43,1111122 
COMPS,ioos:station:USF.COMPS:ANM:1,2010-05-02T00:36:00Z,27.5400,-82.7400,-0.435,1111122 
COMPS,ioos:station:USF.COMPS:ANM:1,2010-05-02T00:42:00Z,27.5400,-82.7400,-0.437,1111122 
COMPS,ioos:station:USF.COMPS:ANM:1,2010-05-02T00:48:00Z,27.5400,-82.7400,-0.444,1111122 
COMPS,ioos:station:USF.COMPS:ANM:1,2010-05-02T00:54:00Z,27.5400,-82.7400,-0.45,1111122 
COMPS,ioos:station:USF.COMPS:ANM:1,2010-05-02T01:00:00Z,27.5400,-82.7400,-0.454,1111122 
COMPS,ioos:station:USF.COMPS:ANM:1,2010-05-02T01:06:00Z,27.5400,-82.7400,-0.459,1111122 
COMPS,ioos:station:USF.COMPS:ANM:1,2010-05-02T01:12:00Z,27.5400,-82.7400,-0.462,1111122 
COMPS,ioos:station:USF.COMPS:ANM:1,2010-05-02T01:18:00Z,27.5400,-82.7400,-0.462,1111122 
COMPS,ioos:station:USF.COMPS:ANM:1,2010-05-02T01:24:00Z,27.5400,-82.7400,-0.467,1111122 
COMPS,ioos:station:USF.COMPS:ANM:1,2010-05-02T01:30:00Z,27.5400,-82.7400,-0.468,1111122 
COMPS,ioos:station:USF.COMPS:ANM:1,2010-05-02T01:36:00Z,27.5400,-82.7400,-0.472,1111122 
COMPS,ioos:station:USF.COMPS:ANM:1,2010-05-02T01:42:00Z,27.5400,-82.7400,-0.472,1111122 
COMPS,ioos:station:USF.COMPS:ANM:1,2010-05-02T01:48:00Z,27.5400,-82.7400,-0.474,1111122 
COMPS,ioos:station:USF.COMPS:ANM:1,2010-05-02T01:54:00Z,27.5400,-82.7400,-0.474,1111122 
COMPS,ioos:station:USF.COMPS:ANM:1,2010-05-02T02:00:00Z,27.5400,-82.7400,-0.475,1111122 
COMPS,ioos:station:USF.COMPS:ANM:1,2010-05-02T02:06:00Z,27.5400,-82.7400,-0.473,1111122 
COMPS,ioos:station:USF.COMPS:ANM:1,2010-05-02T02:12:00Z,27.5400,-82.7400,-0.465,1111122 
COMPS,ioos:station:USF.COMPS:ANM:1,2010-05-02T02:18:00Z,27.5400,-82.7400,-0.459,1111122 
COMPS,ioos:station:USF.COMPS:ANM:1,2010-05-02T02:24:00Z,27.5400,-82.7400,-0.457,1111122 
COMPS,ioos:station:USF.COMPS:ANM:1,2010-05-02T02:30:00Z,27.5400,-82.7400,-0.454,1111122 
COMPS,ioos:station:USF.COMPS:ANM:1,2010-05-02T02:36:00Z,27.5400,-82.7400,-0.443,1111122 
COMPS,ioos:station:USF.COMPS:ANM:1,2010-05-02T02:42:00Z,27.5400,-82.7400,-0.439,1111122 
COMPS,ioos:station:USF.COMPS:ANM:1,2010-05-02T02:48:00Z,27.5400,-82.7400,-0.431,1111122 
COMPS,ioos:station:USF.COMPS:ANM:1,2010-05-02T02:54:00Z,27.5400,-82.7400,-0.426,1111122 